Regional Weather Roundup
Issued by NWS

Home | Current Version | Previous Version | Graphics & Text | Print | Product List | Glossary On
Versions: 1 2 3 4 5 6 7 8 9 10 11 12 13 14 15 16 17 18 19 20 21 22 23 24 25 26 27 28 29 30 31 32 33 34 35 36 37 38 39 40 41 42 43 44 45 46 47
000
ASUS45 KCYS 131610
RWRWY

WYOMING REGIONAL WEATHER ROUNDUP
NATIONAL WEATHER SERVICE CHEYENNE WY
1000 AM MDT SUN JUL 13 2014

NOTE:  "FAIR" INDICATES FEW OR NO CLOUDS BELOW 12,000 FEET
WITH NO SIGNIFICANT WEATHER AND/OR OBSTRUCTIONS TO VISIBILITY.

WYZ001-131700-
YELLOWSTONE NATIONAL PARK

CITY           SKY/WX    TMP DP  RH WIND       PRES   REMARKS
LK YELLOWSTONE   N/A     52  51  97 SE3       30.55F
W YELLOWSTONE  NOT AVBL

$$
WYZ002>013-054>058-071-098>099-131700-
NORTHERN WYOMING

CITY           SKY/WX    TMP DP  RH WIND       PRES   REMARKS
JACKSON        SUNNY     63  48  59 CALM      30.45F
CODY           SUNNY     75  54  46 N5        30.33S
GREYBULL       NOT AVBL
WORLAND        NOT AVBL
SHERIDAN       NOT AVBL
BUFFALO        SUNNY     78  48  34 N13G21    30.30F
GILLETTE       SUNNY     77  54  44 CALM      30.26F
HULETT         FAIR      73  45  35 MISG      30.28
NEWCASTLE      FAIR      75  52  43 MISG      30.26

$$
WYZ014>020-022>026-101>103-131700-
CENTRAL WYOMING

CITY           SKY/WX    TMP DP  RH WIND       PRES   REMARKS
BIG PINEY      NOT AVBL
PINEDALE       SUNNY     66  50  55 NW3       30.47F
DUBOIS         FAIR      64  46  52 CALM      30.45F
LANDER         NOT AVBL
RIVERTON       NOT AVBL
CASPER         MOSUNNY   76  53  44 VRB5      30.34F
DOUGLAS        MOSUNNY   77  56  48 VRB6      30.32F

$$
WYZ021-027>030-104>119-131700-
SOUTHERN WYOMING

CITY           SKY/WX    TMP DP  RH WIND       PRES   REMARKS
EVANSTON       NOT AVBL
KEMMERER       SUNNY     70  46  43 CALM      30.47F
ROCK SPRINGS   NOT AVBL
DIXON          FAIR      73  48  40 CALM      30.42S
RAWLINS        SUNNY     71  50  47 VRB7      30.42F
SARATOGA       FAIR      68  52  56 NW5       30.44F
LARAMIE        SUNNY     68  51  54 VRB3      30.43F
CHEYENNE       PTSUNNY   74  54  49 NE6       30.38F
TORRINGTON     SUNNY     72  60  66 CALM      30.26F

$$



USA.gov is the U.S. government's official web portal to all federal, state and local government web resources and services.